Volver al catálogo

SL-19 R/B

ActivoPO
NORAD 37363·ROCKET BODY·🇷🇺 Russia

Lanzado Feb 1, 2011 desde Plesetsk Cosmodrome

Loading…

Próximos Pases (próximas 24 horas)

TLE

ActualizadoSource: Space-Track

Época: Sep 14, 2026, 13:36 UTC

1 37363U 11005B   26257.56681353  .00049638  40730-5  28442-3 0  9990
2 37363  99.3643  68.9388 0087872 224.8718 134.5413 15.73621580853065

Sigue SL-19 R/B en tiempo real con AllMySat

Download on the App Store